Der Flugplatz Krefeld-Egelsberg
  • ICAO-Code: EDLK
  • Koordinaten: N 51° 23,10'    E 06° 35,26'
  • Höhe ü. NN: 141 ft / 43 m
  • Platzfrequenz: 120.675 MHz - Krefeld Info
  • Landebahn: 06 - 24
  • Abmessungen: 640 x 30m
  • Belag: Gras
  • Tragfähigkeit: 2000 kg MTW; HEL 5700 kg MTW
  • Tankstelle: Nein
  • Betriebszeit: PPR
  • PPR-Request: Tel: 02151/ 560133, 368400
  • Landegebühr: Private Flüge 5 €, für gewerbliche Flüge wird eine gesonderte Gebühr erhoben

 

Wetterinformation

[Quelle: ADDS]
METAR
EDDL 260750Z 15007KT CAVOK 10/04 Q1035 NOSIG =
EDDL 260500Z 2606/2712 15007KT CAVOK BECMG 2610/2612 22008KT BECMG 2619/2622 16004KT BECMG 2704/2707 20009KT
TAF
EDDL 260500Z 2606/2712 15007KT CAVOK BECMG 2610/2612 22008KT BECMG 2619/2622 16004KT BECMG 2704/2707 20009KT =
Lade Webcam-Bild
Cookies erleichtern die Bereitstellung unserer Dienste. Mit der Nutzung unserer Dienste erklären Sie sich damit einverstanden, dass wir Cookies verwenden.